| time (UTC) | temp C | wind direction | speed KPH | gust KPH | rain 1hr cm | rain 24hr cm | rain mn cm | humidity % | barometer mb |
| 20260507140518 | 11 | 49 | 1.6 | 9.7 | 0.00 | 0.25 | 0.08 | 61 | 1013.3 |
| 20260507140039 | 11 | 49 | 1.6 | 9.7 | 0.00 | 0.25 | 0.08 | 62 | 1013.3 |
| 20260507135518 | 11 | 49 | 4.8 | 9.7 | 0.00 | 0.74 | 0.08 | 60 | 1013.4 |
| 20260507135019 | 11 | 49 | 3.2 | 8.0 | 0.00 | 0.74 | 0.08 | 62 | 1013.4 |
| 20260507134536 | 11 | 49 | 3.2 | 8.0 | 0.00 | 0.74 | 0.08 | 62 | 1013.5 |
| 20260507134018 | 11 | 49 | 3.2 | 6.4 | 0.00 | 0.74 | 0.08 | 63 | 1013.5 |
| 20260507133518 | 11 | 49 | 1.6 | 6.4 | 0.00 | 0.74 | 0.08 | 63 | 1013.4 |
| 20260507133033 | 11 | 49 | 1.6 | 6.4 | 0.00 | 0.74 | 0.08 | 64 | 1013.5 |
| 20260507132521 | 11 | 49 | 1.6 | 6.4 | 0.00 | 0.74 | 0.08 | 65 | 1013.5 |
| 20260507132018 | 11 | 49 | 1.6 | 6.4 | 0.00 | 0.74 | 0.08 | 67 | 1013.5 |
| 20260507131538 | 11 | 49 | 1.6 | 6.4 | 0.00 | 0.74 | 0.08 | 69 | 1013.4 |
| 20260507131018 | 11 | 49 | 1.6 | 6.4 | 0.00 | 0.74 | 0.08 | 69 | 1013.3 |
| 20260507130516 | 11 | 49 | 3.2 | 4.8 | 0.00 | 0.74 | 0.08 | 69 | 1013.4 |
| 20260507130039 | 11 | 49 | 3.2 | 6.4 | 0.00 | 0.74 | 0.08 | 69 | 1013.4 |
| 20260507125518 | 11 | 49 | 1.6 | 8.0 | 0.00 | 0.86 | 0.08 | 70 | 1013.4 |
| 20260507125018 | 11 | 49 | 3.2 | 8.0 | 0.00 | 0.86 | 0.08 | 72 | 1013.2 |
| 20260507124537 | 11 | 49 | 3.2 | 8.0 | 0.00 | 0.86 | 0.08 | 72 | 1013.2 |
| 20260507124016 | 11 | 49 | 3.2 | 8.0 | 0.00 | 0.86 | 0.08 | 71 | 1013.4 |
| 20260507123518 | 11 | 49 | 1.6 | 6.4 | 0.00 | 0.86 | 0.08 | 72 | 1013.3 |
| 20260507123040 | 11 | 49 | 3.2 | 6.4 | 0.00 | 0.86 | 0.08 | 72 | 1013.3 |
| 20260507122517 | 11 | 49 | 1.6 | 6.4 | 0.00 | 0.86 | 0.08 | 72 | 1013.4 |
| 20260507122018 | 11 | 49 | 1.6 | 4.8 | 0.00 | 0.86 | 0.08 | 72 | 1013.4 |
| 20260507121541 | 11 | 49 | 1.6 | 8.0 | 0.00 | 0.86 | 0.08 | 72 | 1013.3 |
| 20260507121019 | 11 | 49 | 1.6 | 8.0 | 0.00 | 0.86 | 0.08 | 72 | 1013.3 |
| 20260507120518 | 11 | 49 | 3.2 | 8.0 | 0.00 | 0.86 | 0.08 | 71 | 1013.3 |
| 20260507120043 | 11 | 49 | 3.2 | 8.0 | 0.00 | 0.86 | 0.08 | 71 | 1013.1 |
| 20260507115517 | 12 | 49 | 1.6 | 9.7 | 0.00 | 0.89 | 0.08 | 72 | 1013.3 |
| 20260507115016 | 12 | 49 | 3.2 | 9.7 | 0.00 | 0.89 | 0.08 | 72 | 1013.3 |
| 20260507114532 | 12 | 49 | 3.2 | 9.7 | 0.00 | 0.89 | 0.08 | 73 | 1013.0 |
| 20260507114017 | 12 | 49 | 3.2 | 8.0 | 0.00 | 0.89 | 0.08 | 73 | 1013.0 |
| 20260507113516 | 12 | 49 | 1.6 | 8.0 | 0.00 | 0.89 | 0.08 | 74 | 1012.9 |
| 20260507113043 | 12 | 49 | 1.6 | 8.0 | 0.00 | 0.89 | 0.08 | 75 | 1012.8 |
| 20260507112517 | 12 | 49 | 1.6 | 6.4 | 0.00 | 0.89 | 0.08 | 76 | 1012.6 |
| 20260507112017 | 11 | 49 | 3.2 | 6.4 | 0.00 | 0.89 | 0.08 | 76 | 1012.7 |
| 20260507111538 | 11 | 49 | 1.6 | 6.4 | 0.00 | 0.89 | 0.08 | 75 | 1012.7 |
| 20260507111016 | 12 | 49 | 1.6 | 4.8 | 0.00 | 0.89 | 0.08 | 75 | 1012.8 |
| 20260507110516 | 12 | 49 | 1.6 | 4.8 | 0.00 | 0.89 | 0.08 | 75 | 1012.6 |
| 20260507110038 | 12 | 49 | 1.6 | 4.8 | 0.00 | 0.89 | 0.08 | 75 | 1012.4 |
| 20260507105518 | 11 | 49 | 0.0 | 4.8 | 0.00 | 0.89 | 0.08 | 75 | 1012.5 |
| 20260507105015 | 11 | 49 | 1.6 | 6.4 | 0.00 | 0.89 | 0.08 | 74 | 1012.7 |
| 20260507104536 | 12 | 49 | 1.6 | 6.4 | 0.00 | 0.89 | 0.08 | 74 | 1012.6 |
| 20260507104017 | 12 | 49 | 1.6 | 4.8 | 0.00 | 0.89 | 0.08 | 74 | 1012.4 |
| 20260507103518 | 12 | 49 | 1.6 | 4.8 | 0.00 | 0.89 | 0.08 | 74 | 1012.4 |
| 20260507103033 | 12 | 49 | 3.2 | 6.4 | 0.00 | 0.89 | 0.08 | 74 | 1012.4 |
| 20260507102516 | 12 | 49 | 1.6 | 8.0 | 0.00 | 0.89 | 0.08 | 74 | 1012.3 |
| 20260507102017 | 12 | 49 | 3.2 | 8.0 | 0.00 | 0.89 | 0.08 | 75 | 1012.3 |
| 20260507101532 | 12 | 49 | 3.2 | 8.0 | 0.00 | 0.89 | 0.08 | 74 | 1012.3 |
| 20260507101016 | 12 | 49 | 3.2 | 9.7 | 0.00 | 0.89 | 0.08 | 75 | 1012.2 |
| 20260507100516 | 12 | 49 | 3.2 | 9.7 | 0.00 | 0.89 | 0.08 | 75 | 1012.1 |
| 20260507100040 | 12 | 49 | 3.2 | 8.0 | 0.00 | 0.89 | 0.08 | 75 | 1012.3 |
| 20260507095517 | 12 | 49 | 3.2 | 8.0 | 0.00 | 0.89 | 0.08 | 75 | 1012.1 |
| 20260507095017 | 12 | 49 | 3.2 | 6.4 | 0.00 | 0.89 | 0.08 | 76 | 1012.1 |
| 20260507094537 | 12 | 49 | 1.6 | 6.4 | 0.00 | 0.89 | 0.08 | 77 | 1012.1 |
| 20260507094019 | 12 | 49 | 1.6 | 6.4 | 0.00 | 0.89 | 0.08 | 77 | 1012.2 |
| 20260507093518 | 12 | 49 | 1.6 | 6.4 | 0.00 | 0.89 | 0.08 | 78 | 1012.1 |
| 20260507093037 | 12 | 49 | 1.6 | 6.4 | 0.00 | 0.89 | 0.08 | 78 | 1012.2 |
| 20260507092517 | 12 | 49 | 3.2 | 6.4 | 0.00 | 0.89 | 0.08 | 79 | 1012.1 |
| 20260507092021 | 12 | 49 | 3.2 | 8.0 | 0.00 | 0.89 | 0.08 | 79 | 1012.0 |
| 20260507091536 | 12 | 49 | 1.6 | 8.0 | 0.00 | 0.89 | 0.08 | 80 | 1011.6 |
| 20260507091018 | 12 | 49 | 1.6 | 8.0 | 0.00 | 0.89 | 0.08 | 81 | 1011.7 |
| 20260507090518 | 12 | 49 | 1.6 | 6.4 | 0.00 | 0.89 | 0.08 | 81 | 1011.7 |
| 20260507090032 | 12 | 49 | 1.6 | 8.0 | 0.00 | 0.89 | 0.08 | 82 | 1011.8 |
| 20260507085518 | 12 | 49 | 1.6 | 8.0 | 0.00 | 0.89 | 0.08 | 81 | 1012.0 |
| 20260507085018 | 12 | 49 | 3.2 | 8.0 | 0.00 | 0.89 | 0.08 | 81 | 1011.8 |
| 20260507084534 | 12 | 49 | 1.6 | 6.4 | 0.00 | 0.89 | 0.08 | 83 | 1011.9 |
| 20260507084016 | 12 | 49 | 3.2 | 6.4 | 0.00 | 0.89 | 0.08 | 83 | 1011.7 |
| 20260507083518 | 12 | 49 | 1.6 | 6.4 | 0.00 | 0.89 | 0.08 | 84 | 1011.6 |
| 20260507083037 | 12 | 49 | 0.0 | 3.2 | 0.00 | 0.89 | 0.08 | 84 | 1011.7 |
| 20260507082518 | 12 | 49 | 0.0 | 3.2 | 0.00 | 0.89 | 0.08 | 84 | 1011.9 |
| 20260507082016 | 12 | 49 | 1.6 | 4.8 | 0.00 | 0.89 | 0.08 | 84 | 1011.8 |
| 20260507081544 | 12 | 49 | 1.6 | 6.4 | 0.00 | 0.89 | 0.08 | 84 | 1011.7 |
| 20260507081021 | 12 | 49 | 1.6 | 6.4 | 0.00 | 0.89 | 0.08 | 84 | 1011.5 |
| 20260507080520 | 12 | 49 | 1.6 | 6.4 | 0.00 | 0.89 | 0.08 | 84 | 1011.3 |
| 20260507080038 | 12 | 49 | 0.0 | 6.4 | 0.00 | 0.89 | 0.08 | 84 | 1011.2 |
| 20260507075518 | 12 | 49 | 1.6 | 6.4 | 0.00 | 0.89 | 0.08 | 84 | 1011.2 |
| 20260507075020 | 12 | 49 | 1.6 | 6.4 | 0.00 | 0.89 | 0.08 | 84 | 1011.1 |
| 20260507074535 | 12 | 49 | 3.2 | 6.4 | 0.00 | 0.89 | 0.08 | 84 | 1011.1 |
| 20260507074018 | 12 | 49 | 3.2 | 12.9 | 0.00 | 0.89 | 0.08 | 84 | 1011.3 |
| 20260507073518 | 12 | 49 | 3.2 | 12.9 | 0.00 | 0.89 | 0.08 | 84 | 1011.3 |
| 20260507073035 | 12 | 49 | 3.2 | 9.7 | 0.00 | 0.89 | 0.08 | 84 | 1011.1 |
| 20260507072518 | 12 | 49 | 4.8 | 11.3 | 0.00 | 0.89 | 0.08 | 84 | 1011.0 |
| 20260507072017 | 12 | 49 | 4.8 | 11.3 | 0.00 | 0.89 | 0.08 | 84 | 1010.9 |
| 20260507071535 | 12 | 49 | 1.6 | 11.3 | 0.00 | 0.89 | 0.08 | 84 | 1011.1 |
| 20260507071018 | 12 | 49 | 1.6 | 9.7 | 0.00 | 0.89 | 0.08 | 84 | 1011.1 |
| 20260507070518 | 12 | 49 | 3.2 | 9.7 | 0.00 | 0.89 | 0.08 | 84 | 1011.0 |
| 20260507070040 | 12 | 49 | 4.8 | 9.7 | 0.00 | 0.89 | 0.08 | 84 | 1011.1 |
| 20260507065517 | 12 | 49 | 3.2 | 8.0 | 0.00 | 0.89 | 0.08 | 85 | 1011.1 |
| 20260507065017 | 12 | 49 | 1.6 | 11.3 | 0.00 | 0.89 | 0.08 | 86 | 1011.1 |
| 20260507064545 | 12 | 49 | 3.2 | 11.3 | 0.00 | 0.89 | 0.08 | 86 | 1011.1 |
| 20260507064018 | 12 | 49 | 3.2 | 8.0 | 0.00 | 0.89 | 0.08 | 86 | 1011.1 |
| 20260507063518 | 12 | 49 | 3.2 | 9.7 | 0.03 | 0.89 | 0.08 | 87 | 1011.2 |
| 20260507063046 | 12 | 49 | 3.2 | 9.7 | 0.03 | 0.89 | 0.08 | 87 | 1011.1 |
| 20260507062522 | 12 | 49 | 3.2 | 12.9 | 0.03 | 0.89 | 0.08 | 88 | 1011.2 |
| 20260507062016 | 12 | 49 | 4.8 | 12.9 | 0.03 | 0.89 | 0.08 | 88 | 1011.3 |
| 20260507061540 | 12 | 49 | 1.6 | 8.0 | 0.03 | 0.89 | 0.08 | 88 | 1011.4 |
| 20260507061018 | 12 | 49 | 3.2 | 11.3 | 0.03 | 0.89 | 0.08 | 88 | 1010.9 |
| 20260507060518 | 12 | 49 | 3.2 | 11.3 | 0.03 | 0.89 | 0.08 | 88 | 1010.9 |
| 20260507060037 | 12 | 49 | 6.4 | 11.3 | 0.03 | 0.89 | 0.08 | 88 | 1011.0 |
| 20260507055518 | 12 | 49 | 4.8 | 11.3 | 0.03 | 0.89 | 0.08 | 88 | 1011.0 |
| 20260507055016 | 12 | 49 | 4.8 | 11.3 | 0.03 | 0.89 | 0.08 | 88 | 1011.1 |
| 20260507054537 | 12 | 49 | 4.8 | 16.1 | 0.03 | 0.89 | 0.08 | 88 | 1011.1 |
| 20260507054018 | 13 | 49 | 4.8 | 16.1 | 0.03 | 0.89 | 0.08 | 87 | 1011.0 |
| 20260507053518 | 13 | 49 | 3.2 | 9.7 | 0.00 | 0.86 | 0.05 | 87 | 1011.3 |
| 20260507053041 | 13 | 49 | 4.8 | 9.7 | 0.00 | 0.86 | 0.05 | 87 | 1011.3 |
| 20260507052518 | 13 | 49 | 3.2 | 12.9 | 0.03 | 0.86 | 0.05 | 87 | 1011.2 |
| 20260507052022 | 13 | 49 | 4.8 | 12.9 | 0.03 | 0.86 | 0.05 | 86 | 1011.2 |
| 20260507051539 | 13 | 49 | 3.2 | 9.7 | 0.05 | 0.86 | 0.05 | 86 | 1011.1 |
| 20260507051019 | 13 | 49 | 3.2 | 9.7 | 0.05 | 0.86 | 0.05 | 87 | 1010.9 |
| 20260507050517 | 13 | 49 | 3.2 | 9.7 | 0.05 | 0.86 | 0.05 | 87 | 1010.4 |
| 20260507050035 | 13 | 49 | 1.6 | 8.0 | 0.05 | 0.86 | 0.05 | 87 | 1010.9 |
| 20260507045518 | 13 | 49 | 1.6 | 8.0 | 0.05 | 0.86 | 0.05 | 86 | 1011.4 |
| 20260507045018 | 13 | 49 | 4.8 | 8.0 | 0.05 | 0.86 | 0.05 | 86 | 1011.4 |
| 20260507044537 | 13 | 49 | 1.6 | 9.7 | 0.05 | 0.86 | 0.05 | 85 | 1010.9 |
| 20260507044020 | 14 | 49 | 3.2 | 9.7 | 0.05 | 0.86 | 0.05 | 84 | 1011.2 |
| 20260507043518 | 14 | 49 | 4.8 | 9.7 | 0.05 | 0.86 | 0.05 | 83 | 1011.3 |
| 20260507043038 | 15 | 49 | 4.8 | 9.7 | 0.05 | 0.86 | 0.05 | 83 | 1011.4 |
| 20260507042517 | 15 | 49 | 3.2 | 6.4 | 0.03 | 0.84 | 0.03 | 82 | 1011.2 |
| 20260507042019 | 15 | 49 | 3.2 | 6.4 | 0.03 | 0.84 | 0.03 | 81 | 1011.3 |
| 20260507041544 | 15 | 49 | 3.2 | 8.0 | 0.00 | 0.81 | 0.00 | 80 | 1011.4 |
| 20260507041019 | 15 | 49 | 3.2 | 8.0 | 0.00 | 0.81 | 0.00 | 79 | 1011.1 |
| 20260507040518 | 15 | 49 | 3.2 | 6.4 | 0.00 | 0.81 | 0.00 | 79 | 1011.0 |
| 20260507040037 | 15 | 49 | 1.6 | 9.7 | 0.00 | 0.81 | 0.00 | 79 | 1010.9 |
| 20260507035518 | 15 | 49 | 1.6 | 9.7 | 0.00 | 0.81 | 0.81 | 79 | 1010.9 |
| 20260507035019 | 15 | 49 | 4.8 | 17.7 | 0.00 | 0.81 | 0.81 | 78 | 1010.7 |
| 20260507034544 | 15 | 49 | 6.4 | 17.7 | 0.00 | 0.81 | 0.81 | 78 | 1010.8 |
| 20260507034018 | 15 | 49 | 6.4 | 14.5 | 0.00 | 0.81 | 0.81 | 78 | 1010.9 |
| 20260507033521 | 16 | 49 | 4.8 | 19.3 | 0.00 | 0.81 | 0.81 | 78 | 1010.9 |
| 20260507033053 | 16 | 49 | 8.0 | 19.3 | 0.00 | 0.81 | 0.81 | 76 | 1010.8 |
| 20260507032520 | 16 | 49 | 6.4 | 19.3 | 0.00 | 0.81 | 0.81 | 75 | 1010.8 |
| 20260507032018 | 16 | 49 | 4.8 | 19.3 | 0.00 | 0.81 | 0.81 | 75 | 1011.0 |
| 20260507031534 | 16 | 49 | 6.4 | 19.3 | 0.00 | 0.81 | 0.81 | 75 | 1011.0 |
| 20260507031018 | 16 | 49 | 8.0 | 14.5 | 0.00 | 0.81 | 0.81 | 76 | 1010.8 |
| 20260507030518 | 16 | 49 | 4.8 | 14.5 | 0.00 | 0.81 | 0.81 | 77 | 1010.8 |
| 20260507030034 | 16 | 49 | 3.2 | 14.5 | 0.00 | 0.81 | 0.81 | 77 | 1010.6 |
| 20260507025517 | 16 | 49 | 3.2 | 17.7 | 0.00 | 0.81 | 0.81 | 77 | 1010.2 |
| 20260507025015 | 16 | 49 | 6.4 | 17.7 | 0.00 | 0.81 | 0.81 | 77 | 1009.9 |
| 20260507024545 | 17 | 49 | 4.8 | 11.3 | 0.00 | 0.81 | 0.81 | 78 | 1010.1 |
| 20260507024018 | 17 | 49 | 6.4 | 11.3 | 0.00 | 0.81 | 0.81 | 79 | 1010.4 |
| 20260507023517 | 17 | 49 | 6.4 | 14.5 | 0.00 | 0.81 | 0.81 | 79 | 1010.5 |
| 20260507023037 | 17 | 49 | 3.2 | 14.5 | 0.00 | 0.81 | 0.81 | 81 | 1010.2 |
| 20260507022519 | 17 | 49 | 6.4 | 14.5 | 0.00 | 0.81 | 0.81 | 81 | 1010.1 |
| 20260507022016 | 17 | 49 | 4.8 | 11.3 | 0.00 | 0.81 | 0.81 | 83 | 1010.1 |
| 20260507021538 | 18 | 49 | 3.2 | 11.3 | 0.00 | 0.81 | 0.81 | 83 | 1009.9 |
| 20260507021019 | 18 | 49 | 3.2 | 9.7 | 0.00 | 0.81 | 0.81 | 83 | 1009.8 |
| 20260507020518 | 18 | 49 | 3.2 | 9.7 | 0.00 | 0.81 | 0.81 | 83 | 1009.9 |
| 20260507020034 | 18 | 49 | 3.2 | 9.7 | 0.00 | 0.81 | 0.81 | 83 | 1009.8 |
| 20260507015519 | 18 | 49 | 3.2 | 8.0 | 0.00 | 0.81 | 0.81 | 83 | 1009.8 |
| 20260507015018 | 18 | 49 | 3.2 | 8.0 | 0.00 | 0.81 | 0.81 | 84 | 1009.8 |
| 20260507014532 | 18 | 49 | 1.6 | 8.0 | 0.00 | 0.81 | 0.81 | 84 | 1009.8 |
| 20260507014018 | 18 | 49 | 3.2 | 12.9 | 0.00 | 0.81 | 0.81 | 84 | 1009.7 |
| 20260507013518 | 18 | 49 | 4.8 | 12.9 | 0.00 | 0.81 | 0.81 | 84 | 1009.6 |
| 20260507013039 | 18 | 49 | 3.2 | 9.7 | 0.00 | 0.81 | 0.81 | 84 | 1009.7 |
| 20260507012518 | 18 | 49 | 3.2 | 6.4 | 0.00 | 0.81 | 0.81 | 85 | 1009.9 |
| 20260507012019 | 18 | 49 | 1.6 | 6.4 | 0.00 | 0.81 | 0.81 | 85 | 1010.0 |
| 20260507011539 | 19 | 49 | 1.6 | 4.8 | 0.00 | 0.81 | 0.81 | 85 | 1010.2 |
| 20260507011018 | 18 | 49 | 0.0 | 3.2 | 0.00 | 0.81 | 0.81 | 86 | 1010.0 |
| 20260507010519 | 18 | 0 | 0.0 | 3.2 | 0.00 | 0.81 | 0.81 | 85 | 1010.0 |
| 20260507010040 | 19 | 49 | 1.6 | 3.2 | 0.00 | 0.81 | 0.81 | 85 | 1009.8 |
| 20260507005521 | 19 | 49 | 1.6 | 3.2 | 0.00 | 0.81 | 0.81 | 85 | 1010.0 |
| 20260507005018 | 19 | 49 | 0.0 | 3.2 | 0.00 | 0.81 | 0.81 | 84 | 1009.7 |
| 20260507004535 | 19 | 49 | 0.0 | 3.2 | 0.00 | 0.81 | 0.81 | 84 | 1009.6 |
| 20260507004018 | 19 | 49 | 1.6 | 3.2 | 0.00 | 0.81 | 0.81 | 84 | 1009.7 |
| 20260507003518 | 19 | 49 | 0.0 | 3.2 | 0.00 | 0.81 | 0.81 | 84 | 1009.6 |
| 20260507003034 | 19 | 0 | 0.0 | 1.6 | 0.00 | 0.81 | 0.81 | 84 | 1009.8 |
| 20260507002518 | 19 | 0 | 0.0 | 1.6 | 0.00 | 0.81 | 0.81 | 83 | 1009.5 |
| 20260507002019 | 19 | 0 | 0.0 | 3.2 | 0.00 | 0.81 | 0.81 | 83 | 1009.5 |
| 20260507001551 | 20 | 49 | 0.0 | 3.2 | 0.00 | 0.81 | 0.81 | 82 | 1009.4 |
| 20260507001017 | 20 | 49 | 1.6 | 3.2 | 0.00 | 0.81 | 0.81 | 81 | 1009.4 |
| 20260507000518 | 20 | 49 | 0.0 | 3.2 | 0.00 | 0.81 | 0.81 | 80 | 1009.3 |
| 20260507000037 | 20 | 0 | 0.0 | 3.2 | 0.00 | 0.81 | 0.81 | 80 | 1009.2 |
| 20260506235519 | 20 | 49 | 1.6 | 3.2 | 0.00 | 0.81 | 0.81 | 80 | 1009.3 |
| 20260506235021 | 20 | 49 | 0.0 | 3.2 | 0.00 | 0.81 | 0.81 | 79 | 1009.3 |
| 20260506234547 | 20 | 49 | 1.6 | 4.8 | 0.00 | 0.81 | 0.81 | 79 | 1009.2 |
| 20260506234021 | 20 | 49 | 1.6 | 4.8 | 0.00 | 0.81 | 0.81 | 79 | 1009.2 |
| 20260506233519 | 20 | 49 | 1.6 | 6.4 | 0.00 | 0.81 | 0.81 | 79 | 1009.0 |
| 20260506233037 | 20 | 49 | 1.6 | 6.4 | 0.00 | 0.81 | 0.81 | 79 | 1008.9 |
| 20260506232518 | 20 | 49 | 0.0 | 3.2 | 0.00 | 0.81 | 0.81 | 79 | 1008.8 |
| 20260506232016 | 20 | 49 | 1.6 | 8.0 | 0.00 | 0.81 | 0.81 | 79 | 1008.8 |
| 20260506231537 | 20 | 49 | 1.6 | 8.0 | 0.00 | 0.81 | 0.81 | 79 | 1008.9 |
| 20260506231019 | 20 | 49 | 1.6 | 8.0 | 0.00 | 0.81 | 0.81 | 79 | 1008.7 |
| 20260506230519 | 20 | 49 | 3.2 | 11.3 | 0.00 | 0.81 | 0.81 | 79 | 1008.6 |
| 20260506230035 | 20 | 49 | 4.8 | 12.9 | 0.00 | 0.81 | 0.81 | 79 | 1008.7 |
| 20260506225519 | 20 | 49 | 3.2 | 12.9 | 0.00 | 0.81 | 0.81 | 79 | 1008.6 |
| 20260506225019 | 20 | 49 | 4.8 | 12.9 | 0.00 | 0.81 | 0.81 | 79 | 1008.6 |
| 20260506224547 | 20 | 49 | 4.8 | 9.7 | 0.00 | 0.81 | 0.81 | 79 | 1008.6 |
| 20260506224019 | 20 | 49 | 4.8 | 12.9 | 0.00 | 0.81 | 0.81 | 78 | 1008.6 |
| 20260506223518 | 20 | 49 | 6.4 | 12.9 | 0.00 | 0.81 | 0.81 | 78 | 1008.4 |
| 20260506223037 | 20 | 49 | 6.4 | 14.5 | 0.00 | 0.81 | 0.81 | 78 | 1008.4 |
| 20260506222519 | 20 | 49 | 4.8 | 16.1 | 0.00 | 0.81 | 0.81 | 78 | 1008.6 |
| 20260506222018 | 20 | 49 | 6.4 | 16.1 | 0.00 | 0.81 | 0.81 | 78 | 1008.7 |
| 20260506221536 | 20 | 49 | 8.0 | 16.1 | 0.00 | 0.81 | 0.81 | 77 | 1008.6 |
| 20260506221018 | 20 | 49 | 4.8 | 14.5 | 0.00 | 0.81 | 0.81 | 78 | 1008.5 |
| 20260506220518 | 20 | 49 | 6.4 | 17.7 | 0.00 | 0.81 | 0.81 | 78 | 1008.5 |
| 20260506220044 | 20 | 49 | 8.0 | 17.7 | 0.00 | 0.81 | 0.81 | 77 | 1008.5 |
| 20260506215516 | 20 | 49 | 6.4 | 17.7 | 0.00 | 0.81 | 0.81 | 77 | 1008.5 |
| 20260506215015 | 20 | 49 | 8.0 | 19.3 | 0.00 | 0.81 | 0.81 | 77 | 1008.6 |
| 20260506214537 | 20 | 49 | 6.4 | 19.3 | 0.00 | 0.81 | 0.81 | 77 | 1008.5 |
| 20260506214019 | 20 | 49 | 9.7 | 20.9 | 0.00 | 0.81 | 0.81 | 77 | 1008.4 |
| 20260506213518 | 20 | 49 | 8.0 | 20.9 | 0.00 | 0.81 | 0.81 | 77 | 1008.5 |
| 20260506213034 | 20 | 49 | 11.3 | 20.9 | 0.00 | 0.81 | 0.81 | 77 | 1008.5 |
| 20260506212523 | 20 | 49 | 9.7 | 19.3 | 0.00 | 0.81 | 0.81 | 77 | 1008.4 |
| 20260506212016 | 20 | 50 | 9.7 | 17.7 | 0.00 | 0.81 | 0.81 | 76 | 1008.4 |
| 20260506211534 | 20 | 50 | 6.4 | 16.1 | 0.00 | 0.81 | 0.81 | 76 | 1008.5 |
| 20260506211055 | 20 | 50 | 4.8 | 19.3 | 0.00 | 0.81 | 0.81 | 77 | 1008.5 |
| 20260506210516 | 20 | 50 | 8.0 | 19.3 | 0.00 | 0.81 | 0.81 | 77 | 1008.3 |
| 20260506210038 | 20 | 50 | 9.7 | 17.7 | 0.00 | 0.81 | 0.81 | 77 | 1008.3 |
| 20260506205520 | 20 | 50 | 9.7 | 19.3 | 0.00 | 0.81 | 0.81 | 76 | 1008.2 |
| 20260506205018 | 20 | 50 | 6.4 | 19.3 | 0.00 | 0.81 | 0.81 | 77 | 1008.1 |
| 20260506204539 | 20 | 50 | 9.7 | 19.3 | 0.00 | 0.81 | 0.81 | 77 | 1008.1 |
| 20260506204019 | 20 | 50 | 8.0 | 17.7 | 0.00 | 0.81 | 0.81 | 77 | 1008.0 |
| 20260506203519 | 20 | 50 | 8.0 | 17.7 | 0.00 | 0.81 | 0.81 | 78 | 1008.1 |
| 20260506203037 | 20 | 50 | 6.4 | 20.9 | 0.00 | 0.81 | 0.81 | 77 | 1008.2 |
| 20260506202518 | 20 | 50 | 6.4 | 20.9 | 0.00 | 0.81 | 0.81 | 78 | 1008.1 |
| 20260506202018 | 20 | 50 | 6.4 | 19.3 | 0.00 | 0.81 | 0.81 | 78 | 1008.1 |
| 20260506201537 | 20 | 50 | 6.4 | 20.9 | 0.00 | 0.81 | 0.81 | 79 | 1008.2 |
| 20260506201018 | 19 | 50 | 8.0 | 20.9 | 0.00 | 0.81 | 0.81 | 79 | 1008.3 |
| 20260506200518 | 19 | 50 | 9.7 | 20.9 | 0.00 | 0.81 | 0.81 | 78 | 1008.2 |
| 20260506200041 | 19 | 50 | 9.7 | 20.9 | 0.00 | 0.81 | 0.81 | 79 | 1008.4 |
| 20260506195519 | 19 | 50 | 8.0 | 19.3 | 0.00 | 0.81 | 0.81 | 79 | 1008.4 |
| 20260506195018 | 19 | 50 | 9.7 | 20.9 | 0.00 | 0.81 | 0.81 | 79 | 1008.4 |
| 20260506194544 | 19 | 50 | 8.0 | 20.9 | 0.00 | 0.81 | 0.81 | 79 | 1008.3 |
| 20260506194023 | 19 | 50 | 11.3 | 20.9 | 0.00 | 0.81 | 0.81 | 78 | 1008.3 |
| 20260506193518 | 19 | 50 | 9.7 | 17.7 | 0.00 | 0.81 | 0.81 | 78 | 1008.4 |
| 20260506193043 | 19 | 50 | 6.4 | 19.3 | 0.00 | 0.81 | 0.81 | 80 | 1008.5 |
| 20260506192515 | 19 | 50 | 9.7 | 19.3 | 0.00 | 0.81 | 0.81 | 79 | 1008.4 |
| 20260506192019 | 19 | 50 | 8.0 | 22.5 | 0.00 | 0.81 | 0.81 | 79 | 1008.3 |
| 20260506191537 | 19 | 50 | 9.7 | 22.5 | 0.00 | 0.81 | 0.81 | 80 | 1008.4 |
| 20260506191016 | 18 | 51 | 11.3 | 20.9 | 0.00 | 0.81 | 0.81 | 79 | 1008.5 |
| 20260506190519 | 19 | 50 | 9.7 | 20.9 | 0.00 | 0.81 | 0.81 | 79 | 1008.6 |
| 20260506190038 | 18 | 50 | 9.7 | 17.7 | 0.00 | 0.81 | 0.81 | 80 | 1008.6 |
| 20260506185518 | 18 | 50 | 9.7 | 20.9 | 0.00 | 0.81 | 0.81 | 81 | 1008.5 |
| 20260506185019 | 18 | 50 | 9.7 | 20.9 | 0.00 | 0.81 | 0.81 | 81 | 1008.7 |
| 20260506184538 | 18 | 50 | 8.0 | 19.3 | 0.00 | 0.81 | 0.81 | 81 | 1008.9 |
| 20260506184019 | 18 | 50 | 8.0 | 19.3 | 0.00 | 0.81 | 0.81 | 81 | 1008.9 |
| 20260506183519 | 18 | 50 | 6.4 | 17.7 | 0.00 | 0.81 | 0.81 | 81 | 1008.9 |
| 20260506183041 | 18 | 50 | 8.0 | 17.7 | 0.00 | 0.81 | 0.81 | 81 | 1008.9 |
| 20260506182519 | 18 | 50 | 8.0 | 17.7 | 0.00 | 0.81 | 0.81 | 81 | 1008.9 |
| 20260506182024 | 18 | 50 | 6.4 | 17.7 | 0.00 | 0.81 | 0.81 | 81 | 1009.0 |
| 20260506181552 | 18 | 49 | 6.4 | 17.7 | 0.00 | 0.81 | 0.81 | 82 | 1009.2 |
| 20260506181019 | 18 | 50 | 8.0 | 22.5 | 0.00 | 0.81 | 0.81 | 81 | 1009.0 |
| 20260506180519 | 18 | 50 | 11.3 | 22.5 | 0.00 | 0.81 | 0.81 | 81 | 1009.0 |
| 20260506180037 | 18 | 50 | 8.0 | 19.3 | 0.00 | 0.81 | 0.81 | 81 | 1009.2 |
| 20260506175516 | 18 | 50 | 9.7 | 22.5 | 0.00 | 0.81 | 0.81 | 81 | 1009.2 |
| 20260506175019 | 18 | 50 | 9.7 | 22.5 | 0.00 | 0.81 | 0.81 | 82 | 1009.2 |
| 20260506174538 | 17 | 49 | 8.0 | 22.5 | 0.00 | 0.81 | 0.81 | 81 | 1009.3 |
| 20260506174017 | 17 | 50 | 6.4 | 19.3 | 0.00 | 0.81 | 0.81 | 83 | 1009.3 |
| 20260506173521 | 17 | 50 | 9.7 | 19.3 | 0.00 | 0.81 | 0.81 | 82 | 1009.3 |
| 20260506173047 | 17 | 50 | 8.0 | 20.9 | 0.00 | 0.81 | 0.81 | 83 | 1009.4 |
| 20260506172519 | 17 | 50 | 9.7 | 20.9 | 0.00 | 0.81 | 0.81 | 83 | 1009.5 |
| 20260506172016 | 17 | 49 | 8.0 | 19.3 | 0.00 | 0.81 | 0.81 | 83 | 1009.4 |
| 20260506171535 | 17 | 49 | 8.0 | 19.3 | 0.00 | 0.81 | 0.81 | 84 | 1009.5 |
| 20260506171018 | 17 | 49 | 6.4 | 24.1 | 0.00 | 0.81 | 0.81 | 84 | 1009.4 |
| 20260506170516 | 17 | 49 | 9.7 | 25.7 | 0.00 | 0.81 | 0.81 | 84 | 1009.5 |
| 20260506170045 | 17 | 50 | 8.0 | 25.7 | 0.00 | 0.81 | 0.81 | 84 | 1009.5 |
| 20260506165519 | 17 | 50 | 6.4 | 24.1 | 0.00 | 0.81 | 0.81 | 85 | 1009.5 |
| 20260506165019 | 17 | 50 | 9.7 | 25.7 | 0.00 | 0.81 | 0.81 | 85 | 1009.3 |
| 20260506164538 | 17 | 50 | 14.5 | 25.7 | 0.00 | 0.81 | 0.81 | 85 | 1009.4 |
| 20260506164018 | 17 | 49 | 11.3 | 22.5 | 0.00 | 0.81 | 0.81 | 86 | 1009.4 |
| 20260506163518 | 17 | 50 | 11.3 | 25.7 | 0.00 | 0.81 | 0.81 | 86 | 1009.4 |
| 20260506163037 | 17 | 49 | 11.3 | 29.0 | 0.00 | 0.81 | 0.81 | 87 | 1009.7 |
| 20260506162516 | 16 | 49 | 12.9 | 29.0 | 0.00 | 0.81 | 0.81 | 87 | 1009.6 |
| 20260506162017 | 16 | 51 | 9.7 | 19.3 | 0.00 | 0.81 | 0.81 | 88 | 1009.6 |
| 20260506161537 | 16 | 51 | 8.0 | 20.9 | 0.00 | 0.81 | 0.81 | 89 | 1009.8 |
| 20260506161016 | 16 | 51 | 8.0 | 20.9 | 0.00 | 0.81 | 0.81 | 89 | 1009.8 |
| 20260506160516 | 16 | 51 | 9.7 | 19.3 | 0.03 | 0.81 | 0.81 | 89 | 1009.7 |
| 20260506160041 | 16 | 51 | 8.0 | 19.3 | 0.03 | 0.81 | 0.81 | 89 | 1009.7 |
| 20260506155518 | 16 | 51 | 11.3 | 20.9 | 0.05 | 0.81 | 0.81 | 90 | 1009.7 |
| 20260506155019 | 16 | 51 | 9.7 | 20.9 | 0.08 | 0.81 | 0.81 | 90 | 1009.6 |
| 20260506154539 | 16 | 51 | 9.7 | 19.3 | 0.10 | 0.81 | 0.81 | 90 | 1009.8 |
| 20260506154018 | 16 | 51 | 6.4 | 17.7 | 0.10 | 0.81 | 0.81 | 91 | 1009.8 |
| 20260506153519 | 16 | 51 | 9.7 | 24.1 | 0.13 | 0.81 | 0.81 | 91 | 1009.7 |
| 20260506153038 | 16 | 51 | 9.7 | 24.1 | 0.13 | 0.81 | 0.81 | 91 | 1009.9 |
| 20260506152518 | 15 | 51 | 9.7 | 22.5 | 0.15 | 0.81 | 0.81 | 92 | 1009.9 |
| 20260506152019 | 15 | 50 | 9.7 | 22.5 | 0.15 | 0.81 | 0.81 | 91 | 1009.9 |
| 20260506151539 | 15 | 50 | 8.0 | 22.5 | 0.15 | 0.81 | 0.81 | 91 | 1009.8 |
| 20260506151020 | 15 | 49 | 9.7 | 22.5 | 0.15 | 0.81 | 0.81 | 91 | 1009.8 |
| 20260506150519 | 15 | 49 | 11.3 | 22.5 | 0.13 | 0.79 | 0.79 | 91 | 1010.1 |
| 20260506150038 | 15 | 51 | 8.0 | 20.9 | 0.15 | 0.79 | 0.79 | 91 | 1010.1 |
| 20260506145519 | 15 | 51 | 9.7 | 19.3 | 0.13 | 0.76 | 0.76 | 91 | 1010.1 |
| 20260506145019 | 15 | 51 | 8.0 | 19.3 | 0.13 | 0.74 | 0.74 | 91 | 1010.1 |
| 20260506144541 | 15 | 51 | 8.0 | 17.7 | 0.13 | 0.71 | 0.71 | 91 | 1010.4 |
| 20260506144018 | 15 | 51 | 8.0 | 16.1 | 0.15 | 0.71 | 0.71 | 91 | 1010.5 |
| 20260506143518 | 15 | 51 | 8.0 | 16.1 | 0.18 | 0.69 | 0.69 | 91 | 1010.4 |
| 20260506143036 | 15 | 51 | 8.0 | 16.1 | 0.23 | 0.69 | 0.69 | 91 | 1010.5 |
| 20260506142520 | 15 | 51 | 6.4 | 19.3 | 0.25 | 0.66 | 0.66 | 91 | 1010.5 |
| 20260506142019 | 15 | 51 | 9.7 | 19.3 | 0.28 | 0.66 | 0.66 | 91 | 1010.5 |
| 20260506141536 | 15 | 51 | 9.7 | 19.3 | 0.33 | 0.66 | 0.66 | 90 | 1010.5 |
| 20260506141019 | 15 | 51 | 8.0 | 16.1 | 0.38 | 0.66 | 0.66 | 90 | 1010.5 |